[Iaude] MPEC R03: 2019 QQ6 [a=0.90,e=0.42,i=26.7,H=25.3]

mpec at marsden.cfa.harvard.edu mpec at marsden.cfa.harvard.edu
Sun Sep 1 08:38:39 EDT 2019


M.P.E.C. 2019-R03                                Issued 2019 September 1, 12:37 UT  

     The Minor Planet Electronic Circulars contain information on unusual
         minor planets and routine data on comets.  They are published
    on behalf of Division F of the International Astronomical Union by the
          Minor Planet Center, Smithsonian Astrophysical Observatory,
                          Cambridge, MA 02138, U.S.A.

             Prepared using the Tamkin Foundation Computer Network

                              MPC at CFA.HARVARD.EDU
            URL https://www.minorplanetcenter.net/    ISSN 1523-6714

                                    2019 QQ6                                    


Observations:
     K19Q06Q* C2019 08 30.22184 21 47 33.24 +19 36 37.2          20.2 GVER003G96
     K19Q06Q  C2019 08 30.22746 21 47 25.62 +19 36 47.2          20.3 GVER003G96
     K19Q06Q  C2019 08 30.23309 21 47 18.03 +19 36 58.2          20.3 GVER003G96
     K19Q06Q  C2019 08 30.23874 21 47 10.36 +19 37 09.3          20.6 GVER003G96
     K19Q06Q  C2019 08 30.38679 21 43 54.47 +19 41 22.4          20.9 GVER003I52
     K19Q06Q  C2019 08 30.38776 21 43 53.22 +19 41 23.8                VER003I52
     K19Q06Q  C2019 08 30.39075 21 43 49.44 +19 41 28.8                VER003I52
     K19Q06Q  C2019 08 30.39172 21 43 48.09 +19 41 29.9          20.8 GVER003I52
     K19Q06Q KC2019 08 30.91361 21 33 52.23 +19 53 35.4          20.3 VqER003I93
     K19Q06Q KC2019 08 30.92558 21 33 38.81 +19 53 50.2          20.4 VqER003I93
     K19Q06Q pC2019 08 31.83014321 19 15.76 +20 07 06.7          21.0 GVER003L01
     K19Q06Q KC2019 08 31.83240121 19 13.78 +20 07 08.5          20.9 GVER003L01
     K19Q06Q IC2019 08 31.83562721 19 10.95 +20 07 11.9          21.1 GVER003L01
     K19Q06Q KC2019 08 31.85464221 18 55.22 +20 07 10.2          20.3 GVER003J95
     K19Q06Q KC2019 08 31.86755221 18 43.92 +20 07 19.2          20.2 GVER003J95
     K19Q06Q KC2019 09 01.19432 21 14 17.63 +20 10 44.1          20.8 GUER003H36
     K19Q06Q KC2019 09 01.19934 21 14 13.54 +20 10 46.1          20.7 GUER003H36
     K19Q06Q KC2019 09 01.20545 21 14 08.58 +20 10 48.9          20.8 GUER003H36

Observer details:
G96 Mt. Lemmon Survey.  Observer D. Rankin.  Measurers B. M. Africano, E. J. 
   Christensen, G. A. Farneth, D. C. Fuls, A. R. Gibbs, A. D. Grauer, H. 
   Groeller, R. A. Kowalski, S. M. Larson, G. J. Leonard, T. A. Pruyne, D. 
   Rankin, R. L. Seaman, F. C. Shelly.  1.5-m reflector + 10K CCD.
H36 Sandlot Observatory, Scranton.  Observer G. Hug.  0.56-m reflector + CCD.
I52 Steward Observatory, Mt. Lemmon Station.  Observer G. J. Leonard.  
    Measurers B. M. Africano, E. J. Christensen, G. A. Farneth, D. C. Fuls, A. 
   R. Gibbs, A. D. Grauer, H. Groeller, R. A. Kowalski, S. M. Larson, G. J. 
   Leonard, T. A. Pruyne, D. Rankin, R. L. Seaman, F. C. Shelly.  1.0-m 
   reflector + CCD.
I93 St Pardon de Conques.  Observer F. Losse.  0.40-m f/3.7 reflector + CCD.
J95 Great Shefford.  Observer P. Birtwhistle.  0.41-m f/6.3 Schmidt-Cassegrain 
   + CCD.
L01 Visnjan Observatory, Tican.  Observer K. Korlevic.  1.0-m f/2.9 reflector + 
   CCD.

Orbital elements:
2019 QQ6                                                 Earth MOID = 0.0150 AU
Epoch 2019 Apr. 27.0 TT = JDT 2458600.5                 Veres
M 308.76508              (2000.0)            P               Q
n   1.14908732     Peri.  228.24999     -0.89536250     +0.39634494
a   0.9027497      Node   333.11319     -0.13594958     -0.67747991
e   0.4200406      Incl.   26.68198     -0.42407984     -0.61962219
P   0.86           H   25.3           G   0.15           U   8
Residuals in seconds of arc
190830 G96  0.3-  0.6+    190830 I52  0.8+  0.5+    190831 L01  0.3+  0.5+
190830 G96  0.2-  0.4-    190830 I52  0.6-  0.1+    190831 J95  0.2+  0.0
190830 G96  0.3+  0.3-    190830 I93  0.3+  0.1-    190831 J95  0.3-  0.1-
190830 G96  0.0   0.1-    190830 I93  0.2-  0.2-    190901 H36  0.1-  0.8+
190830 I52  0.0   0.1+    190831 L01  0.3-  0.8-    190901 H36  0.1+  0.4+
190830 I52  0.0   0.0     190831 L01  0.0   0.6-    190901 H36  0.4+  0.3+

2019 QQ6                                                                        
Epoch 2019 Apr. 27.0 TT = JDT 2458600.5                 Veres                   
M 308.76508              (2000.0)            P               Q                  
n   1.14908732     Peri.  228.24999     -0.89536250     +0.39634494             
a   0.9027497      Node   333.11319     -0.13594958     -0.67747991             
e   0.4200406      Incl.   26.68198     -0.42407984     -0.61962219             
P   0.86           H   25.3           G   0.15           U   8                  
>From 18 observations 2019 Aug. 30-Sept. 1, mean residual 0".38.                 
                                                                                
Ephemeris:
2019 QQ6                 a,e,i = 0.90, 0.42, 27                  q = 0.5236
Date    TT    R. A. (2000) Decl.     Delta      r    Elong.  Phase     V
2019 08 02    07 04 59.4 -17 52 47   0.2285  0.8642    43.7   125.8    27.1
...
2019 08 17    06 03 02.0 -16 37 11   0.08587 0.9756    62.3   113.2    24.3
...
2019 08 25    01 52 19.2 +03 59 56   0.03109 1.0285   123.5    55.1    19.8
...
2019 08 31    21 32 19.2 +19 56 12   0.06488 1.0648   147.3    30.8    20.8
2019 09 01    21 16 52.3 +20 09 41   0.07373 1.0706   144.9    32.8    21.2
2019 09 02    21 04 48.2 +20 15 48   0.08283 1.0763   142.8    34.6    21.5
...
2019 09 08    20 27 35.6 +20 02 49   0.1401  1.1089   133.6    41.2    22.9
...
2019 09 16    20 12 00.9 +19 24 06   0.2192  1.1479   125.9    45.2    24.0
...
2019 10 01    20 10 00.3 +18 17 34   0.3700  1.2074   115.4    48.5    25.4

A. U. Tomatic                (C) Copyright 2019 MPC           M.P.E.C. 2019-R03




More information about the Iaude mailing list